owner,sensor,date,latitude,longitude,vertical_datum,direction_of_sea_water_velocity,sea_water_speed,upward_sea_water_velocity,qcFlag 
TABS,ioos:station:wmo:42044:1,2006-09-01T00:00:00Z,26.1914,-97.0507,2.0,315.5967786,24.45307752,-99999.0,'11111222,11111222,99999999' 
TABS,ioos:station:wmo:42044:1,2006-09-01T00:30:00Z,26.1914,-97.0507,2.0,322.8524116,23.0842717,-99999.0,'11111222,11111222,99999999' 
TABS,ioos:station:wmo:42044:1,2006-09-01T01:00:00Z,26.1914,-97.0507,2.0,335.8393518,11.72731853,-99999.0,'11111222,11111222,99999999' 
TABS,ioos:station:wmo:42044:1,2006-09-01T01:30:00Z,26.1914,-97.0507,2.0,328.4702653,23.2529138,-99999.0,'11111222,11111222,99999999' 
TABS,ioos:station:wmo:42044:1,2006-09-01T02:00:00Z,26.1914,-97.0507,2.0,334.093763,26.06980245,-99999.0,'11111222,11111222,99999999' 
TABS,ioos:station:wmo:42044:1,2006-09-01T02:30:00Z,26.1914,-97.0507,2.0,341.440062,30.38007406,-99999.0,'11111222,11111222,99999999' 
TABS,ioos:station:wmo:42044:1,2006-09-01T03:00:00Z,26.1914,-97.0507,2.0,351.9165779,29.65465393,-99999.0,'11111222,11111222,99999999' 
TABS,ioos:station:wmo:42044:1,2006-09-01T03:30:00Z,26.1914,-97.0507,2.0,357.1445464,25.4916555,-99999.0,'11111222,11111222,99999999' 
TABS,ioos:station:wmo:42044:1,2006-09-01T04:00:00Z,26.1914,-97.0507,2.0,352.224515,24.4649484,-99999.0,'11111222,11111222,99999999' 
TABS,ioos:station:wmo:42044:1,2006-09-01T04:30:00Z,26.1914,-97.0507,2.0,356.2889353,25.95442929,-99999.0,'11111222,11111222,99999999' 
TABS,ioos:station:wmo:42044:1,2006-09-01T05:00:00Z,26.1914,-97.0507,2.0,358.7843552,28.27636646,-99999.0,'11111222,11111222,99999999' 
TABS,ioos:station:wmo:42044:1,2006-09-01T05:30:00Z,26.1914,-97.0507,2.0,0.040687771,28.31000706,-99999.0,'11111222,11111222,99999999' 
TABS,ioos:station:wmo:42044:1,2006-09-01T06:00:00Z,26.1914,-97.0507,2.0,3.68383558,33.30881565,-99999.0,'11111222,11111222,99999999' 
TABS,ioos:station:wmo:42044:1,2006-09-01T06:30:00Z,26.1914,-97.0507,2.0,3.388276091,31.13441825,-99999.0,'11111222,11111222,99999999' 
TABS,ioos:station:wmo:42044:1,2006-09-01T07:00:00Z,26.1914,-97.0507,2.0,8.502416164,33.75091851,-99999.0,'11111222,11111222,99999999' 
TABS,ioos:station:wmo:42044:1,2006-09-01T07:30:00Z,26.1914,-97.0507,2.0,13.10039814,28.0602655,-99999.0,'11111222,11111222,99999999' 
TABS,ioos:station:wmo:42044:1,2006-09-01T08:00:00Z,26.1914,-97.0507,2.0,15.69783117,26.68528621,-99999.0,'11111222,11111222,99999999' 
TABS,ioos:station:wmo:42044:1,2006-09-01T08:30:00Z,26.1914,-97.0507,2.0,13.41238515,28.2813313,-99999.0,'11111222,11111222,99999999' 
TABS,ioos:station:wmo:42044:1,2006-09-01T09:00:00Z,26.1914,-97.0507,2.0,17.23663733,26.45824068,-99999.0,'11111222,11111222,99999999' 
TABS,ioos:station:wmo:42044:1,2006-09-01T09:30:00Z,26.1914,-97.0507,2.0,20.16730484,25.00290583,-99999.0,'11111222,11111222,99999999' 
TABS,ioos:station:wmo:42044:1,2006-09-01T10:00:00Z,26.1914,-97.0507,2.0,22.32653672,24.92878858,-99999.0,'11111222,11111222,99999999' 
TABS,ioos:station:wmo:42044:1,2006-09-01T10:30:00Z,26.1914,-97.0507,2.0,23.2585139,21.39902101,-99999.0,'11111222,11111222,99999999' 
TABS,ioos:station:wmo:42044:1,2006-09-01T11:00:00Z,26.1914,-97.0507,2.0,31.3659971,20.03838816,-99999.0,'11111222,11111222,99999999' 
TABS,ioos:station:wmo:42044:1,2006-09-01T11:30:00Z,26.1914,-97.0507,2.0,40.39706623,9.427857657,-99999.0,'11133222,11111222,99999999' 
TABS,ioos:station:wmo:42044:1,2006-09-01T12:00:00Z,26.1914,-97.0507,2.0,41.12292682,15.37232904,-99999.0,'11111222,11111222,99999999' 
TABS,ioos:station:wmo:42044:1,2006-09-01T12:30:00Z,26.1914,-97.0507,2.0,36.3228133,9.842448882,-99999.0,'11133222,11111222,99999999' 
TABS,ioos:station:wmo:42044:1,2006-09-01T13:00:00Z,26.1914,-97.0507,2.0,35.9597837,10.57533451,-99999.0,'11111222,11111222,99999999' 
TABS,ioos:station:wmo:42044:1,2006-09-01T13:30:00Z,26.1914,-97.0507,2.0,42.2038255,11.01569789,-99999.0,'11111222,11111222,99999999' 
TABS,ioos:station:wmo:42044:1,2006-09-01T14:00:00Z,26.1914,-97.0507,2.0,58.73455087,9.768694897,-99999.0,'11133222,11111222,99999999' 
TABS,ioos:station:wmo:42044:1,2006-09-01T14:30:00Z,26.1914,-97.0507,2.0,53.19702232,12.00200817,-99999.0,'11111222,11111222,99999999' 
TABS,ioos:station:wmo:42044:1,2006-09-01T15:00:00Z,26.1914,-97.0507,2.0,51.73477052,9.526825284,-99999.0,'11133222,11111222,99999999' 
TABS,ioos:station:wmo:42044:1,2006-09-01T15:30:00Z,26.1914,-97.0507,2.0,52.27882993,9.153010434,-99999.0,'11133222,11111222,99999999' 
TABS,ioos:station:wmo:42044:1,2006-09-01T16:00:00Z,26.1914,-97.0507,2.0,68.2362124,5.663709032,-99999.0,'11133222,11111222,99999999' 
TABS,ioos:station:wmo:42044:1,2006-09-01T16:30:00Z,26.1914,-97.0507,2.0,81.47402738,5.935596011,-99999.0,'11133222,11111222,99999999' 
TABS,ioos:station:wmo:42044:1,2006-09-01T17:00:00Z,26.1914,-97.0507,2.0,100.5474277,6.337073457,-99999.0,'11133222,11111222,99999999' 
TABS,ioos:station:wmo:42044:1,2006-09-01T17:30:00Z,26.1914,-97.0507,2.0,65.20952359,2.599557655,-99999.0,'11133222,11111222,99999999' 
TABS,ioos:station:wmo:42044:1,2006-09-01T18:00:00Z,26.1914,-97.0507,2.0,337.7689473,2.722370291,-99999.0,'11133222,11111222,99999999' 
TABS,ioos:station:wmo:42044:1,2006-09-01T18:30:00Z,26.1914,-97.0507,2.0,322.9301821,3.434020967,-99999.0,'11133222,11111222,99999999' 
TABS,ioos:station:wmo:42044:1,2006-09-01T19:00:00Z,26.1914,-97.0507,2.0,325.0082721,3.17370446,-99999.0,'11133222,11111222,99999999' 
TABS,ioos:station:wmo:42044:1,2006-09-01T19:30:00Z,26.1914,-97.0507,2.0,333.1029694,6.940871703,-99999.0,'11133222,11111222,99999999' 
TABS,ioos:station:wmo:42044:1,2006-09-01T20:00:00Z,26.1914,-97.0507,2.0,350.4817795,6.712413873,-99999.0,'11133222,11111222,99999999' 
TABS,ioos:station:wmo:42044:1,2006-09-01T20:30:00Z,26.1914,-97.0507,2.0,340.7723361,9.139857767,-99999.0,'11133222,11111222,99999999' 
TABS,ioos:station:wmo:42044:1,2006-09-01T21:00:00Z,26.1914,-97.0507,2.0,339.2833838,10.00705751,-99999.0,'11111222,11111222,99999999' 
TABS,ioos:station:wmo:42044:1,2006-09-01T21:30:00Z,26.1914,-97.0507,2.0,338.9409193,13.19104621,-99999.0,'11111222,11111222,99999999' 
TABS,ioos:station:wmo:42044:1,2006-09-01T22:00:00Z,26.1914,-97.0507,2.0,343.7778072,13.3516029,-99999.0,'11111222,11111222,99999999' 
TABS,ioos:station:wmo:42044:1,2006-09-01T22:30:00Z,26.1914,-97.0507,2.0,350.3234391,14.93246463,-99999.0,'11111222,11111222,99999999' 
TABS,ioos:station:wmo:42044:1,2006-09-01T23:00:00Z,26.1914,-97.0507,2.0,348.2200535,17.6824263,-99999.0,'11111222,11111222,99999999' 
TABS,ioos:station:wmo:42044:1,2006-09-01T23:30:00Z,26.1914,-97.0507,2.0,348.7441942,20.85107671,-99999.0,'11111222,11111222,99999999' 
TABS,ioos:station:wmo:42044:1,2006-09-02T00:00:00Z,26.1914,-97.0507,2.0,349.4240091,19.45043187,-99999.0,'11111222,11111222,99999999' 
TABS,ioos:station:wmo:42044:1,2006-09-02T00:30:00Z,26.1914,-97.0507,2.0,349.7568881,18.33219027,-99999.0,'11111222,11111222,99999999' 
TABS,ioos:station:wmo:42044:1,2006-09-02T01:00:00Z,26.1914,-97.0507,2.0,346.81448,5.392160977,-99999.0,'11133222,11111222,99999999' 
TABS,ioos:station:wmo:42044:1,2006-09-02T01:30:00Z,26.1914,-97.0507,2.0,1.173982123,15.13317548,-99999.0,'11111222,11111222,99999999' 
TABS,ioos:station:wmo:42044:1,2006-09-02T02:00:00Z,26.1914,-97.0507,2.0,358.7330751,19.44475508,-99999.0,'11111222,11111222,99999999' 
TABS,ioos:station:wmo:42044:1,2006-09-02T02:30:00Z,26.1914,-97.0507,2.0,6.654619944,23.55871176,-99999.0,'11111222,11111222,99999999' 
TABS,ioos:station:wmo:42044:1,2006-09-02T03:00:00Z,26.1914,-97.0507,2.0,4.937248392,22.7744967,-99999.0,'11111222,11111222,99999999' 
TABS,ioos:station:wmo:42044:1,2006-09-02T03:30:00Z,26.1914,-97.0507,2.0,0.948218252,22.36306106,-99999.0,'11111222,11111222,99999999' 
TABS,ioos:station:wmo:42044:1,2006-09-02T04:00:00Z,26.1914,-97.0507,2.0,4.525514771,22.56033023,-99999.0,'11111222,11111222,99999999' 
TABS,ioos:station:wmo:42044:1,2006-09-02T04:30:00Z,26.1914,-97.0507,2.0,1.757467418,25.7621156,-99999.0,'11111222,11111222,99999999' 
TABS,ioos:station:wmo:42044:1,2006-09-02T05:00:00Z,26.1914,-97.0507,2.0,9.0024084,24.1575661,-99999.0,'11111222,11111222,99999999' 
TABS,ioos:station:wmo:42044:1,2006-09-02T05:30:00Z,26.1914,-97.0507,2.0,6.751953892,24.75165651,-99999.0,'11111222,11111222,99999999' 
TABS,ioos:station:wmo:42044:1,2006-09-02T06:00:00Z,26.1914,-97.0507,2.0,11.99266366,30.12753724,-99999.0,'11111222,11111222,99999999' 
TABS,ioos:station:wmo:42044:1,2006-09-02T06:30:00Z,26.1914,-97.0507,2.0,16.33527634,30.29282588,-99999.0,'11111222,11111222,99999999' 
TABS,ioos:station:wmo:42044:1,2006-09-02T07:00:00Z,26.1914,-97.0507,2.0,11.17380672,32.14940901,-99999.0,'11111222,11111222,99999999' 
TABS,ioos:station:wmo:42044:1,2006-09-02T07:30:00Z,26.1914,-97.0507,2.0,13.66730302,32.37675246,-99999.0,'11111222,11111222,99999999' 
TABS,ioos:station:wmo:42044:1,2006-09-02T08:00:00Z,26.1914,-97.0507,2.0,13.417561,34.13160412,-99999.0,'11111222,11111222,99999999' 
TABS,ioos:station:wmo:42044:1,2006-09-02T08:30:00Z,26.1914,-97.0507,2.0,14.77795782,35.79397994,-99999.0,'11111222,11111222,99999999' 
TABS,ioos:station:wmo:42044:1,2006-09-02T09:00:00Z,26.1914,-97.0507,2.0,12.131367,38.44859555,-99999.0,'11111222,11111222,99999999' 
TABS,ioos:station:wmo:42044:1,2006-09-02T09:30:00Z,26.1914,-97.0507,2.0,13.90717791,40.85765534,-99999.0,'11111222,11111222,99999999' 
TABS,ioos:station:wmo:42044:1,2006-09-02T10:00:00Z,26.1914,-97.0507,2.0,15.33587803,40.53327645,-99999.0,'11111222,11111222,99999999' 
TABS,ioos:station:wmo:42044:1,2006-09-02T10:30:00Z,26.1914,-97.0507,2.0,21.38711405,42.61448111,-99999.0,'11111222,11111222,99999999' 
TABS,ioos:station:wmo:42044:1,2006-09-02T11:00:00Z,26.1914,-97.0507,2.0,18.39462456,44.74624007,-99999.0,'11111222,11111222,99999999' 
TABS,ioos:station:wmo:42044:1,2006-09-02T11:30:00Z,26.1914,-97.0507,2.0,21.69338606,33.43821915,-99999.0,'11111222,11111222,99999999' 
TABS,ioos:station:wmo:42044:1,2006-09-02T12:00:00Z,26.1914,-97.0507,2.0,18.95085683,30.91567887,-99999.0,'11111222,11111222,99999999' 
TABS,ioos:station:wmo:42044:1,2006-09-02T12:30:00Z,26.1914,-97.0507,2.0,18.63150151,36.90399707,-99999.0,'11111222,11111222,99999999' 
TABS,ioos:station:wmo:42044:1,2006-09-02T13:00:00Z,26.1914,-97.0507,2.0,21.91279739,41.13159491,-99999.0,'11111222,11111222,99999999' 
TABS,ioos:station:wmo:42044:1,2006-09-02T13:30:00Z,26.1914,-97.0507,2.0,18.75823742,35.32636551,-99999.0,'11111222,11111222,99999999' 
TABS,ioos:station:wmo:42044:1,2006-09-02T14:00:00Z,26.1914,-97.0507,2.0,18.43059152,40.04392214,-99999.0,'11111222,11111222,99999999' 
TABS,ioos:station:wmo:42044:1,2006-09-02T14:30:00Z,26.1914,-97.0507,2.0,19.30357249,40.475479,-99999.0,'11111222,11111222,99999999' 
TABS,ioos:station:wmo:42044:1,2006-09-02T15:00:00Z,26.1914,-97.0507,2.0,15.92582965,39.87027966,-99999.0,'11111222,11111222,99999999' 
TABS,ioos:station:wmo:42044:1,2006-09-02T15:30:00Z,26.1914,-97.0507,2.0,17.45063564,42.88365306,-99999.0,'11111222,11111222,99999999' 
TABS,ioos:station:wmo:42044:1,2006-09-02T16:00:00Z,26.1914,-97.0507,2.0,15.23095896,41.30066585,-99999.0,'11111222,11111222,99999999' 
TABS,ioos:station:wmo:42044:1,2006-09-02T16:30:00Z,26.1914,-97.0507,2.0,12.53951812,41.31549104,-99999.0,'11111222,11111222,99999999' 
TABS,ioos:station:wmo:42044:1,2006-09-02T17:00:00Z,26.1914,-97.0507,2.0,13.19394504,44.20689652,-99999.0,'11111222,11111222,99999999' 
TABS,ioos:station:wmo:42044:1,2006-09-02T17:30:00Z,26.1914,-97.0507,2.0,15.21449489,41.87777692,-99999.0,'11111222,11111222,99999999' 
TABS,ioos:station:wmo:42044:1,2006-09-02T18:00:00Z,26.1914,-97.0507,2.0,14.75274441,42.0977731,-99999.0,'11111222,11111222,99999999' 
TABS,ioos:station:wmo:42044:1,2006-09-02T18:30:00Z,26.1914,-97.0507,2.0,15.4049209,42.65235398,-99999.0,'11111222,11111222,99999999' 
TABS,ioos:station:wmo:42044:1,2006-09-02T19:00:00Z,26.1914,-97.0507,2.0,15.70881155,42.21675615,-99999.0,'11111222,11111222,99999999' 
TABS,ioos:station:wmo:42044:1,2006-09-02T19:30:00Z,26.1914,-97.0507,2.0,10.46607453,39.14118292,-99999.0,'11111222,11111222,99999999' 
TABS,ioos:station:wmo:42044:1,2006-09-02T20:00:00Z,26.1914,-97.0507,2.0,8.881757742,38.92674787,-99999.0,'11111222,11111222,99999999' 
TABS,ioos:station:wmo:42044:1,2006-09-02T20:30:00Z,26.1914,-97.0507,2.0,9.488547558,39.79442298,-99999.0,'11111222,11111222,99999999' 
TABS,ioos:station:wmo:42044:1,2006-09-02T21:00:00Z,26.1914,-97.0507,2.0,6.207227092,38.01284257,-99999.0,'11111222,11111222,99999999' 
TABS,ioos:station:wmo:42044:1,2006-09-02T21:30:00Z,26.1914,-97.0507,2.0,6.728356799,36.53158633,-99999.0,'11111222,11111222,99999999' 
TABS,ioos:station:wmo:42044:1,2006-09-02T22:00:00Z,26.1914,-97.0507,2.0,6.626981871,34.66157671,-99999.0,'11111222,11111222,99999999' 
TABS,ioos:station:wmo:42044:1,2006-09-02T22:30:00Z,26.1914,-97.0507,2.0,11.1634556,27.58186361,-99999.0,'11111222,11111222,99999999' 
TABS,ioos:station:wmo:42044:1,2006-09-02T23:00:00Z,26.1914,-97.0507,2.0,5.850524623,25.70387714,-99999.0,'11111222,11111222,99999999' 
TABS,ioos:station:wmo:42044:1,2006-09-02T23:30:00Z,26.1914,-97.0507,2.0,9.630139217,28.09590718,-99999.0,'11111222,11111222,99999999' 
TABS,ioos:station:wmo:42044:1,2006-09-03T00:00:00Z,26.1914,-97.0507,2.0,8.444774975,28.60007168,-99999.0,'11111222,11111222,99999999' 
TABS,ioos:station:wmo:42044:1,2006-09-03T00:30:00Z,26.1914,-97.0507,2.0,7.872759458,26.42909003,-99999.0,'11111222,11111222,99999999' 
TABS,ioos:station:wmo:42044:1,2006-09-03T01:00:00Z,26.1914,-97.0507,2.0,3.463446343,13.90539464,-99999.0,'11111222,11111222,99999999' 
TABS,ioos:station:wmo:42044:1,2006-09-03T01:30:00Z,26.1914,-97.0507,2.0,355.4664299,9.108501523,-99999.0,'11133222,11111222,99999999' 
TABS,ioos:station:wmo:42044:1,2006-09-03T02:00:00Z,26.1914,-97.0507,2.0,3.447589249,14.13557922,-99999.0,'11111222,11111222,99999999' 
TABS,ioos:station:wmo:42044:1,2006-09-03T02:30:00Z,26.1914,-97.0507,2.0,2.075231968,15.1899605,-99999.0,'11111222,11111222,99999999' 
TABS,ioos:station:wmo:42044:1,2006-09-03T03:00:00Z,26.1914,-97.0507,2.0,342.0698522,6.463946163,-99999.0,'11133222,11111222,99999999' 
TABS,ioos:station:wmo:42044:1,2006-09-03T03:30:00Z,26.1914,-97.0507,2.0,357.2219096,19.39279505,-99999.0,'11111222,11111222,99999999' 
TABS,ioos:station:wmo:42044:1,2006-09-03T04:00:00Z,26.1914,-97.0507,2.0,356.6579739,13.89363163,-99999.0,'11111222,11111222,99999999' 
TABS,ioos:station:wmo:42044:1,2006-09-03T04:30:00Z,26.1914,-97.0507,2.0,350.0305618,5.198499784,-99999.0,'11133222,11111222,99999999' 
TABS,ioos:station:wmo:42044:1,2006-09-03T05:00:00Z,26.1914,-97.0507,2.0,340.2890062,7.382587622,-99999.0,'11133222,11111222,99999999' 
TABS,ioos:station:wmo:42044:1,2006-09-03T05:30:00Z,26.1914,-97.0507,2.0,354.6873601,7.883869608,-99999.0,'11133222,11111222,99999999' 
TABS,ioos:station:wmo:42044:1,2006-09-03T06:00:00Z,26.1914,-97.0507,2.0,351.9559157,21.72375888,-99999.0,'11111222,11111222,99999999' 
TABS,ioos:station:wmo:42044:1,2006-09-03T06:30:00Z,26.1914,-97.0507,2.0,351.9281774,20.93744254,-99999.0,'11111222,11111222,99999999' 
TABS,ioos:station:wmo:42044:1,2006-09-03T07:00:00Z,26.1914,-97.0507,2.0,353.4438675,22.24548494,-99999.0,'11111222,11111222,99999999' 
TABS,ioos:station:wmo:42044:1,2006-09-03T07:30:00Z,26.1914,-97.0507,2.0,350.1016363,22.45426463,-99999.0,'11111222,11111222,99999999' 
TABS,ioos:station:wmo:42044:1,2006-09-03T08:00:00Z,26.1914,-97.0507,2.0,348.0919382,19.53030978,-99999.0,'11111222,11111222,99999999' 
TABS,ioos:station:wmo:42044:1,2006-09-03T08:30:00Z,26.1914,-97.0507,2.0,342.0433864,21.60227071,-99999.0,'11111222,11111222,99999999' 
TABS,ioos:station:wmo:42044:1,2006-09-03T09:00:00Z,26.1914,-97.0507,2.0,341.7701751,23.87851126,-99999.0,'11111222,11111222,99999999' 
TABS,ioos:station:wmo:42044:1,2006-09-03T09:30:00Z,26.1914,-97.0507,2.0,343.8297098,23.77042911,-99999.0,'11111222,11111222,99999999' 
TABS,ioos:station:wmo:42044:1,2006-09-03T10:00:00Z,26.1914,-97.0507,2.0,336.3830578,24.26213717,-99999.0,'11111222,11111222,99999999' 
TABS,ioos:station:wmo:42044:1,2006-09-03T10:30:00Z,26.1914,-97.0507,2.0,339.8781781,23.95198739,-99999.0,'11111222,11111222,99999999' 
TABS,ioos:station:wmo:42044:1,2006-09-03T11:00:00Z,26.1914,-97.0507,2.0,336.2995719,26.22158843,-99999.0,'11111222,11111222,99999999' 
TABS,ioos:station:wmo:42044:1,2006-09-03T11:30:00Z,26.1914,-97.0507,2.0,348.2891041,20.44560833,-99999.0,'11111222,11111222,99999999' 
TABS,ioos:station:wmo:42044:1,2006-09-03T12:00:00Z,26.1914,-97.0507,2.0,331.8835498,23.61706586,-99999.0,'11111222,11111222,99999999' 
TABS,ioos:station:wmo:42044:1,2006-09-03T12:30:00Z,26.1914,-97.0507,2.0,334.851901,26.59050394,-99999.0,'11111222,11111222,99999999' 
TABS,ioos:station:wmo:42044:1,2006-09-03T13:00:00Z,26.1914,-97.0507,2.0,336.1948704,28.14448614,-99999.0,'11111222,11111222,99999999' 
TABS,ioos:station:wmo:42044:1,2006-09-03T13:30:00Z,26.1914,-97.0507,2.0,336.0483682,27.46511424,-99999.0,'11111222,11111222,99999999' 
TABS,ioos:station:wmo:42044:1,2006-09-03T14:00:00Z,26.1914,-97.0507,2.0,343.5529757,27.44294627,-99999.0,'11111222,11111222,99999999' 
TABS,ioos:station:wmo:42044:1,2006-09-03T14:30:00Z,26.1914,-97.0507,2.0,342.1379053,26.89651464,-99999.0,'11111222,11111222,99999999' 
TABS,ioos:station:wmo:42044:1,2006-09-03T15:00:00Z,26.1914,-97.0507,2.0,344.4050366,26.74460132,-99999.0,'11111222,11111222,99999999' 
TABS,ioos:station:wmo:42044:1,2006-09-03T15:30:00Z,26.1914,-97.0507,2.0,348.4301004,26.77405087,-99999.0,'11111222,11111222,99999999' 
TABS,ioos:station:wmo:42044:1,2006-09-03T16:00:00Z,26.1914,-97.0507,2.0,348.5029531,26.38952823,-99999.0,'11111222,11111222,99999999' 
TABS,ioos:station:wmo:42044:1,2006-09-03T16:30:00Z,26.1914,-97.0507,2.0,345.6764376,21.74601803,-99999.0,'11111222,11111222,99999999' 
TABS,ioos:station:wmo:42044:1,2006-09-03T17:00:00Z,26.1914,-97.0507,2.0,350.1406373,23.7101919,-99999.0,'11111222,11111222,99999999' 
TABS,ioos:station:wmo:42044:1,2006-09-03T17:30:00Z,26.1914,-97.0507,2.0,342.1606281,21.6090097,-99999.0,'11111222,11111222,99999999' 
TABS,ioos:station:wmo:42044:1,2006-09-03T18:00:00Z,26.1914,-97.0507,2.0,348.136065,21.69342066,-99999.0,'11111222,11111222,99999999' 
TABS,ioos:station:wmo:42044:1,2006-09-03T18:30:00Z,26.1914,-97.0507,2.0,341.7200645,21.0734952,-99999.0,'11111222,11111222,99999999' 
TABS,ioos:station:wmo:42044:1,2006-09-03T19:00:00Z,26.1914,-97.0507,2.0,341.869168,21.46584263,-99999.0,'11111222,11111222,99999999' 
TABS,ioos:station:wmo:42044:1,2006-09-03T19:30:00Z,26.1914,-97.0507,2.0,334.8682404,20.7437822,-99999.0,'11111222,11111222,99999999' 
TABS,ioos:station:wmo:42044:1,2006-09-03T20:00:00Z,26.1914,-97.0507,2.0,334.4768456,23.37077234,-99999.0,'11111222,11111222,99999999' 
TABS,ioos:station:wmo:42044:1,2006-09-03T20:30:00Z,26.1914,-97.0507,2.0,340.0219156,20.54644738,-99999.0,'11111222,11111222,99999999' 
TABS,ioos:station:wmo:42044:1,2006-09-03T21:00:00Z,26.1914,-97.0507,2.0,334.6318536,22.05691275,-99999.0,'11111222,11111222,99999999' 
TABS,ioos:station:wmo:42044:1,2006-09-03T21:30:00Z,26.1914,-97.0507,2.0,339.7403036,20.15709552,-99999.0,'11111222,11111222,99999999' 
TABS,ioos:station:wmo:42044:1,2006-09-03T22:00:00Z,26.1914,-97.0507,2.0,333.9844991,18.1934851,-99999.0,'11111222,11111222,99999999' 
TABS,ioos:station:wmo:42044:1,2006-09-03T22:30:00Z,26.1914,-97.0507,2.0,335.6402179,16.38909699,-99999.0,'11111222,11111222,99999999' 
TABS,ioos:station:wmo:42044:1,2006-09-03T23:00:00Z,26.1914,-97.0507,2.0,339.6218868,15.85212919,-99999.0,'11111222,11111222,99999999' 
TABS,ioos:station:wmo:42044:1,2006-09-03T23:30:00Z,26.1914,-97.0507,2.0,346.9940074,18.48420136,-99999.0,'11111222,11111222,99999999' 
TABS,ioos:station:wmo:42044:1,2006-09-04T00:00:00Z,26.1914,-97.0507,2.0,344.7100234,17.17806159,-99999.0,'11111222,11111222,99999999' 
TABS,ioos:station:wmo:42044:1,2006-09-04T00:30:00Z,26.1914,-97.0507,2.0,336.5914263,13.23971676,-99999.0,'11111222,11111222,99999999' 
TABS,ioos:station:wmo:42044:1,2006-09-04T01:00:00Z,26.1914,-97.0507,2.0,298.8869351,1.324839613,-99999.0,'11133222,11111222,99999999' 
TABS,ioos:station:wmo:42044:1,2006-09-04T01:30:00Z,26.1914,-97.0507,2.0,355.9960469,2.004894012,-99999.0,'11133222,11111222,99999999' 
TABS,ioos:station:wmo:42044:1,2006-09-04T02:00:00Z,26.1914,-97.0507,2.0,258.0430228,0.868849814,-99999.0,'11133222,11111222,99999999' 
TABS,ioos:station:wmo:42044:1,2006-09-04T02:30:00Z,26.1914,-97.0507,2.0,324.2242164,0.838152731,-99999.0,'11133222,11111222,99999999' 
TABS,ioos:station:wmo:42044:1,2006-09-04T03:00:00Z,26.1914,-97.0507,2.0,28.64775993,1.230650235,-99999.0,'11133222,11111222,99999999' 
TABS,ioos:station:wmo:42044:1,2006-09-04T03:30:00Z,26.1914,-97.0507,2.0,14.54980921,1.353403118,-99999.0,'11133222,11111222,99999999' 
TABS,ioos:station:wmo:42044:1,2006-09-04T04:00:00Z,26.1914,-97.0507,2.0,311.3133312,2.968922363,-99999.0,'11133222,11111222,99999999' 
TABS,ioos:station:wmo:42044:1,2006-09-04T04:30:00Z,26.1914,-97.0507,2.0,343.0308358,2.843817856,-99999.0,'11133222,11111222,99999999' 
TABS,ioos:station:wmo:42044:1,2006-09-04T05:00:00Z,26.1914,-97.0507,2.0,333.9675698,3.850675265,-99999.0,'11133222,11111222,99999999' 
TABS,ioos:station:wmo:42044:1,2006-09-04T05:30:00Z,26.1914,-97.0507,2.0,337.39233,3.693846234,-99999.0,'11133222,11111222,99999999' 
TABS,ioos:station:wmo:42044:1,2006-09-04T06:00:00Z,26.1914,-97.0507,2.0,336.417432,7.048687821,-99999.0,'11133222,11111222,99999999' 
TABS,ioos:station:wmo:42044:1,2006-09-04T06:30:00Z,26.1914,-97.0507,2.0,339.9152692,3.843761179,-99999.0,'11133222,11111222,99999999' 
TABS,ioos:station:wmo:42044:1,2006-09-04T07:00:00Z,26.1914,-97.0507,2.0,339.2553819,6.747458781,-99999.0,'11133222,11111222,99999999' 
TABS,ioos:station:wmo:42044:1,2006-09-04T07:30:00Z,26.1914,-97.0507,2.0,334.9917852,8.231767732,-99999.0,'11133222,11111222,99999999' 
TABS,ioos:station:wmo:42044:1,2006-09-04T08:00:00Z,26.1914,-97.0507,2.0,336.4587599,21.28121472,-99999.0,'11111222,11111222,99999999' 
TABS,ioos:station:wmo:42044:1,2006-09-04T08:30:00Z,26.1914,-97.0507,2.0,342.2081462,22.54845893,-99999.0,'11111222,11111222,99999999' 
TABS,ioos:station:wmo:42044:1,2006-09-04T09:00:00Z,26.1914,-97.0507,2.0,340.2283623,23.17631765,-99999.0,'11111222,11111222,99999999' 
TABS,ioos:station:wmo:42044:1,2006-09-04T09:30:00Z,26.1914,-97.0507,2.0,344.0281157,23.54909765,-99999.0,'11111222,11111222,99999999' 
TABS,ioos:station:wmo:42044:1,2006-09-04T10:00:00Z,26.1914,-97.0507,2.0,343.3150736,23.40544381,-99999.0,'11111222,11111222,99999999' 
TABS,ioos:station:wmo:42044:1,2006-09-04T10:30:00Z,26.1914,-97.0507,2.0,344.6673154,25.18649837,-99999.0,'11111222,11111222,99999999' 
TABS,ioos:station:wmo:42044:1,2006-09-04T11:00:00Z,26.1914,-97.0507,2.0,348.4008878,24.07160153,-99999.0,'11111222,11111222,99999999' 
TABS,ioos:station:wmo:42044:1,2006-09-04T11:30:00Z,26.1914,-97.0507,2.0,355.6859688,18.21160344,-99999.0,'11111222,11111222,99999999' 
TABS,ioos:station:wmo:42044:1,2006-09-04T12:00:00Z,26.1914,-97.0507,2.0,355.369767,24.65045639,-99999.0,'11111222,11111222,99999999' 
TABS,ioos:station:wmo:42044:1,2006-09-04T12:30:00Z,26.1914,-97.0507,2.0,353.1524657,22.81273548,-99999.0,'11111222,11111222,99999999' 
TABS,ioos:station:wmo:42044:1,2006-09-04T13:00:00Z,26.1914,-97.0507,2.0,357.9163741,24.47618639,-99999.0,'11111222,11111222,99999999' 
TABS,ioos:station:wmo:42044:1,2006-09-04T13:30:00Z,26.1914,-97.0507,2.0,357.5474928,25.00290583,-99999.0,'11111222,11111222,99999999' 
TABS,ioos:station:wmo:42044:1,2006-09-04T14:00:00Z,26.1914,-97.0507,2.0,357.5252711,23.85224937,-99999.0,'11111222,11111222,99999999' 
TABS,ioos:station:wmo:42044:1,2006-09-04T14:30:00Z,26.1914,-97.0507,2.0,352.367411,22.81212397,-99999.0,'11111222,11111222,99999999' 
TABS,ioos:station:wmo:42044:1,2006-09-04T15:00:00Z,26.1914,-97.0507,2.0,0.131682567,21.79005737,-99999.0,'11111222,11111222,99999999' 
TABS,ioos:station:wmo:42044:1,2006-09-04T15:30:00Z,26.1914,-97.0507,2.0,357.6629101,22.0683597,-99999.0,'11111222,11111222,99999999' 
TABS,ioos:station:wmo:42044:1,2006-09-04T16:00:00Z,26.1914,-97.0507,2.0,358.9754808,24.04384537,-99999.0,'11111222,11111222,99999999' 